Elko, NV

7:59 PM PST on November 17, 2019 (GMT -0800)
Elko Regional

Weather History for KEKO - October, 2019

Change the Weather History Date:

Sunday, October 20, 2019

  Actual Average Record
Temperature  
Mean Temperature 39 °F 45 °F  
Max Temperature 51 °F 63 °F 82 °F (1921)
Min Temperature 27 °F 27 °F 8 °F (1996)
Degree Days  
Heating Degree Days 26 20  
Month to date heating degree days 422 327  
Since 1 July heating degree days 639 585  
Cooling Degree Days 0 0  
Month to date cooling degree days 0 0  
Year to date cooling degree days 503 383  
Moisture  
Dew Point 22 °F    
Average Humidity 48    
Maximum Humidity 69    
Minimum Humidity 27    
Precipitation  
Precipitation 0.00 in 0.03 in 0.52 in (1972)
Month to date precipitation 0.13 0.44  
Year to date precipitation 12.62 7.29  
Snow  
Snow 0.00 in 0.00 in 2.00 in (1920)
Month to date snowfall 0.0 0.2  
Since 1 July snowfall T 0.3  
Since 1 September snowfall T 0.3  
Snow Depth 0.00 in    
Sea Level Pressure  
Sea Level Pressure 30.16 in    
Wind  
Wind Speed 6 mph (WSW)    
Max Wind Speed 17 mph    
Max Gust Speed 26 mph    
Visibility 10 miles    
Events      
T = Trace of Precipitation, MM = Missing Value Source: NWS Daily Summary

Daily Weather History Graph

Daily Weather History Graph

Search for Another Location

Airport or City:

Astronomy

Oct. 20, 2019 Rise Set
Actual Time 6:59 AM PDT 5:55 PM PDT
Civil Twilight 6:31 AM PDT 6:23 PM PDT
Nautical Twilight 6:00 AM PDT 6:55 PM PDT
Astronomical Twilight 5:28 AM PDT 7:26 PM PDT
Moon 11:07 PM PDT (10/20) 1:33 PM PDT (10/20)
Length of Visible Light 11h 51m
Length of Day
10h 55m
Waning Gibbous, 58% of the Moon is Illuminated
Oct 20
Waning Gibbous
Oct 21
Last Quarter
Oct 27
New
Nov 4
First Quarter
Nov 12
Full

Hourly Weather History & Observations

Time (PDT) Temp. Windchill Dew Point Humidity Pressure Visibility Wind Dir Wind Speed Gust Speed Precip Events Conditions
12:56 AM 37.9 °F 34.4 °F 21.0 °F 51% 30.07 in 10.0 mi NNW 4.6 mph - N/A   Scattered Clouds
1:56 AM 35.1 °F 29.3 °F 19.9 °F 54% 30.10 in 10.0 mi WNW 6.9 mph - N/A   Clear
2:56 AM 32.0 °F 26.4 °F 21.0 °F 64% 30.12 in 10.0 mi SW 5.8 mph - N/A   Mostly Cloudy
3:56 AM 30.0 °F 23.2 °F 19.9 °F 66% 30.13 in 10.0 mi West 6.9 mph - N/A   Clear
4:56 AM 32.0 °F 23.0 °F 21.0 °F 64% 30.13 in 10.0 mi South 11.5 mph - N/A   Clear
5:56 AM 34.0 °F 29.8 °F 21.9 °F 61% 30.15 in 10.0 mi SSW 4.6 mph - N/A   Overcast
6:56 AM 32.0 °F 25.6 °F 21.9 °F 66% 30.17 in 10.0 mi SW 6.9 mph - N/A   Overcast
7:56 AM 32.0 °F 26.4 °F 23.0 °F 69% 30.20 in 10.0 mi WSW 5.8 mph - N/A   Partly Cloudy
8:56 AM 36.0 °F 30.3 °F 23.0 °F 59% 30.23 in 10.0 mi SW 6.9 mph - N/A   Clear
9:56 AM 39.9 °F 36.7 °F 19.9 °F 45% 30.23 in 10.0 mi West 4.6 mph - N/A   Scattered Clouds
10:56 AM 43.0 °F 40.3 °F 21.0 °F 42% 30.22 in 10.0 mi Variable 4.6 mph - N/A   Mostly Cloudy
11:56 AM 43.0 °F 38.8 °F 21.0 °F 42% 30.22 in 10.0 mi WSW 6.9 mph - N/A   Mostly Cloudy
12:56 PM 46.9 °F - 21.9 °F 37% 30.18 in 10.0 mi SW 8.1 mph - N/A   Mostly Cloudy
1:56 PM 48.9 °F - 21.0 °F 33% 30.16 in 10.0 mi WSW 13.8 mph 20.7 mph N/A   Partly Cloudy
2:56 PM 48.9 °F - 18.0 °F 29% 30.15 in 10.0 mi West 11.5 mph - N/A   Mostly Cloudy
3:56 PM 50.0 °F - 18.0 °F 28% 30.14 in 10.0 mi WSW 10.4 mph 19.6 mph N/A   Scattered Clouds
4:56 PM 48.9 °F - 19.0 °F 31% 30.13 in 10.0 mi WSW 15.0 mph - N/A   Mostly Cloudy
5:56 PM 46.9 °F - 21.0 °F 36% 30.12 in 10.0 mi SW 9.2 mph - N/A   Overcast
6:56 PM 45.0 °F - 23.0 °F 42% 30.14 in 10.0 mi Calm Calm - N/A   Overcast
7:56 PM 44.1 °F 42.5 °F 25.0 °F 47% 30.16 in 10.0 mi West 3.5 mph - N/A   Overcast
8:56 PM 43.0 °F 41.3 °F 26.1 °F 51% 30.14 in 10.0 mi WSW 3.5 mph - N/A   Mostly Cloudy
10:56 PM 34.0 °F 29.8 °F 24.1 °F 67% 30.16 in 10.0 mi WNW 4.6 mph - N/A   Partly Cloudy
11:56 PM 35.1 °F - 24.1 °F 64% 30.17 in 10.0 mi Calm Calm - N/A   Clear